FENGYUN 1C DEB

Satellite information

Favourite Embed

Satellite Type and Status

DEBRISIN ORBIT

Key statistics

Satellite FENGYUN 1C DEB at a glance.

Uptime

9498

Days in orbit

Revolutions

≈ 14.3

Per day

Orbit

SSO

Sun Synchronous Orbit

Inclination

99.1

Latest

Satellite identification and parameters

Extended collection of information and parameters for FENGYUN 1C DEB.

Object identification

Identified? True

Debris? True

Object name: FENGYUN 1C DEB

International designator: 1999-025BWJ

Object number (NORAD): 31495

Object ID (CCSDS): 31495

Country: PEOPLES REPUBLIC OF CHINA (PRC)

Current information (Y/N): Y

RCS size: SMALL

Orbital parameters

Period: 100.858 minutes

Inclination: 99.1414 deg

SMA: 7177.422 km

Apoapsis: 819.784 km

Periapsis: 778.79 km

RAAN: 351.546 deg

Eccentricy: 0.0028558

Argument of periapsis: 87.1191 deg

Mean anomaly: 273.3256 deg

Mean motion: 14.27743057 rev/day

Mean motion (dot): 0.00003197 rev/day2

B* drag term: 0.0013084 1/REarth

Two-line elements (TLE)

Creation date: May 8, 2025, 10:46 p.m.

Reference frame: TEME

Reference center: EARTH

Epoch: May 8, 2025, 8:25 a.m. UTC

TLE line 0: 0 FENGYUN 1C DEB

TLE line 1: 1 31495U 99025BWJ 25128.35135125 .00003197 00000-0 13084-2 0 9998

TLE line 2: 2 31495 99.1414 351.5460 0028558 87.1191 273.3256 14.27743057930933

Live tracking on map

Real-time ground track for satellite FENGYUN 1C DEB.

In-orbit conjunctions

A list of the most updated potential collisions computed for object FENGYUN 1C DEB.

Target Orbit TCA Probability of collision Miss distance Type
COSMOS 1867 COOLANT LEO 2024-09-25 17:48:24 0.0005306294 662.0 (m) DEBRIS
NOAA 16 DEB SSO 2024-07-11 06:10:06 0.0002010019 161.0 (m) DEBRIS

Associated space launch

Chinese polar orbiting meteorological satellite

FENGYUN 1C DEB was lifted into orbit during the mission ‘Long March 4B | Feng Yun 1C’, on board a Long March 4B space rocket.

The launch took place on May 10, 1999, 1:33 a.m. from Launch Complex 7.

For more information about the launch, click the button.

Launch to space Long March 4B | Feng Yun 1C
Long March 4B | Feng Yun 1C

Agency: N/A

Status: Launch Successful

Launch date: May 10, 1999, 1:33 a.m. UTC

Rocket: Long March 4B

Launch pad: Launch Complex 7

Location: Taiyuan Satellite Launch Center, People's Republic of China

...

Latest news about this satellite

There are no fresh news available about this satellite. Check back as we update our databases every day.


Newsletter sign-up

Weekly statistics, charts and insights to help you stay on top of the space industry.